Change the Weather History Date:

Tuesday, February 26, 2013

  Actual Average Record
Temperature  
Mean Temperature 28 °F 38 °F  
Max Temperature 40 °F 49 °F 70 °F (1986)
Min Temperature 16 °F 26 °F 8 °F (1993)
Degree Days  
Heating Degree Days 37 27  
Month to date heating degree days 788 788  
Cooling Degree Days 0 0  
Month to date cooling degree days 0 0  
Moisture  
Dew Point 20 °F    
Average Humidity 72    
Maximum Humidity 100    
Minimum Humidity 39    
Precipitation  
Precipitation 0.00 in 0.03 in 0.45 in (1957)
Month to date precipitation 0.06 0.79  
Sea Level Pressure  
Sea Level Pressure 30.32 in    
Wind  
Wind Speed 9 mph (NW)    
Max Wind Speed 18 mph    
Max Gust Speed 24 mph    
Visibility 8 miles    
Events Fog    
T = Trace of Precipitation, MM = Missing Value Source: NWS Daily Summary

Daily Weather History Graph

Daily Weather History Graph

Search for Another Location

Airport or City:

Trip Planner

Search our weather history database for the weather conditions in past years. The results will help you decide how hot, cold, wet, or windy it might be!

Date:

Astronomy

Feb. 26, 2013 Rise Set
Actual Time 7:23 AM MST 6:29 PM MST
Civil Twilight 6:55 AM MST 6:58 PM MST
Nautical Twilight 6:22 AM MST 7:30 PM MST
Astronomical Twilight 5:49 AM MST 8:03 PM MST
Moon 7:54 PM MST (2/26) 7:26 AM MST (2/26)
Length of Visible Light 12h 02m
Length of Day
11h 05m
Full, 99% of the Moon is Illuminated
Feb 26
Full
Mar 4
Last Quarter
Mar 11
New
Mar 19
First Quarter
Mar 27
Full

Hourly Weather History & Observations

Time (MST) Temp. Windchill Dew Point Humidity Pressure Visibility Wind Dir Wind Speed Gust Speed Precip Events Conditions
12:03 AM 28.4 °F 19.7 °F 26.6 °F 93% 30.15 in 10.0 mi West 9.2 mph - N/A   Scattered Clouds
12:58 AM 23.5 °F 14.5 °F 22.6 °F 96% 30.24 in 10.0 mi NW 8.1 mph - N/A   Clear
1:58 AM 25.3 °F 15.3 °F 24.1 °F 95% 30.25 in 10.0 mi WNW 10.4 mph - N/A   Clear
2:58 AM 21.0 °F 11.4 °F 19.8 °F 95% 30.27 in 3.0 mi NW 8.1 mph - N/A   Mostly Cloudy
3:02 AM 23.0 °F 13.1 °F 21.2 °F 93% 30.18 in 1.0 mi NW 9.2 mph - N/A   Clear
3:07 AM 24.8 °F 15.3 °F 23.0 °F 93% 30.18 in 0.5 mi NW 9.2 mph - N/A Fog Light Freezing Fog
3:55 AM 23.0 °F 14.7 °F 23.0 °F 100% 30.28 in 4.0 mi NNW 6.9 mph - N/A   Scattered Clouds
4:55 AM 21.2 °F 12.6 °F 21.2 °F 100% 30.30 in 2.0 mi NW 6.9 mph - N/A   Clear
5:28 AM 19.4 °F 9.5 °F 17.6 °F 93% 30.23 in 0.5 mi WNW 8.1 mph - N/A Fog Light Freezing Fog
5:57 AM 19.4 °F 10.4 °F 17.6 °F 93% 30.33 in 6.0 mi WNW 6.9 mph - N/A   Clear
6:58 AM 19.4 °F 11.5 °F 17.6 °F 93% 30.35 in 10.0 mi WNW 5.8 mph - N/A   Partly Cloudy
7:58 AM 18.1 °F 10.0 °F 16.2 °F 92% 30.37 in 10.0 mi NW 5.8 mph - N/A   Partly Cloudy
8:58 AM 24.4 °F 18.6 °F 22.1 °F 91% 30.29 in 10.0 mi West 4.6 mph - N/A   Partly Cloudy
9:58 AM 30.2 °F 22.6 °F 26.6 °F 86% 30.27 in 10.0 mi WNW 8.1 mph - N/A   Partly Cloudy
10:58 AM 33.8 °F 25.8 °F 24.8 °F 70% 30.35 in 10.0 mi WNW 10.4 mph - N/A   Partly Cloudy
11:10 AM 32.0 °F 21.2 °F 23.0 °F 69% 30.33 in 10.0 mi NW 16.1 mph - N/A   Partly Cloudy
11:58 AM 35.6 °F 25.9 °F 21.4 °F 56% 30.40 in 10.0 mi WNW 16.1 mph - N/A   Partly Cloudy
12:58 PM 37.4 °F 27.5 °F 18.3 °F 46% 30.39 in 10.0 mi NW 18.4 mph 24.2 mph N/A   Partly Cloudy
1:33 PM 37.4 °F 28.2 °F 17.6 °F 45% 30.31 in 10.0 mi NW 16.1 mph 21.9 mph N/A   Scattered Clouds
1:58 PM 38.5 °F 31.1 °F 18.5 °F 45% 30.37 in 10.0 mi NW 11.5 mph 18.4 mph N/A   Partly Cloudy
2:45 PM 39.2 °F 31.6 °F 17.6 °F 42% 30.29 in 10.0 mi WNW 12.7 mph 19.6 mph N/A   Partly Cloudy
2:58 PM 39.7 °F 31.5 °F 17.8 °F 41% 30.36 in 10.0 mi NW 15.0 mph - N/A   Partly Cloudy
3:19 PM 39.2 °F 30.2 °F 17.6 °F 42% 30.29 in 10.0 mi West 17.3 mph - N/A   Partly Cloudy
3:58 PM 40.1 °F 32.7 °F 17.4 °F 40% 30.36 in 10.0 mi NNW 12.7 mph 20.7 mph N/A   Partly Cloudy
4:58 PM 39.9 °F 32.9 °F 16.5 °F 39% 30.37 in 10.0 mi NW 11.5 mph - N/A   Partly Cloudy
5:58 PM 38.7 °F 32.9 °F 17.2 °F 42% 30.37 in 10.0 mi NW 8.1 mph - N/A   Partly Cloudy
6:58 PM 35.6 °F 31.7 °F 18.3 °F 50% 30.38 in 10.0 mi NNE 4.6 mph - N/A   Clear
7:58 PM 28.4 °F 23.3 °F 18.3 °F 66% 30.40 in 10.0 mi ENE 4.6 mph - N/A   Clear
8:58 PM 26.6 °F 21.2 °F 17.8 °F 69% 30.40 in 10.0 mi ENE 4.6 mph - N/A   Clear
9:58 PM 23.0 °F 14.7 °F 17.1 °F 78% 30.32 in 10.0 mi SE 6.9 mph - N/A   Clear
10:58 PM 23.2 °F 17.2 °F 18.5 °F 82% 30.32 in 10.0 mi ENE 4.6 mph - N/A   Clear
11:58 PM 22.6 °F 18.0 °F 18.1 °F 83% 30.41 in 10.0 mi East 3.5 mph - N/A   Clear